Location: Powder Track
(41.8531°N, 72.3584°W)
Time: 07:53:52
(UTC+00:00)

Altair - Pass Details

Date: 31 July 2021
Orbit: 1501 x 1682 km, 47.2° (Epoch: 19 September)

Event Time Altitude Azimuth Distance (km) Brightness Sun altitude
Exits shadow 08:18:27 10° 262° (W) 3,700 9.0 -13.9°
Maximum altitude 08:27:43 70° 345° (NNW) 1,591 7.7 -12.6°
Drops below altitude 10° 08:36:53 10° 70° (ENE) 3,655 10.8 -11.3°
Sets 08:39:56 0° 73° (ENE) 4,638 11.6 -10.8°
